Regional Weather Roundup
Issued by NWS Newport/Morehead, NC

Current Version | Previous Version | Graphics & Text | Print | Product List | Glossary On
Versions: 1 2 3 4 5 6 7 8 9 10 11 12 13 14 15 16 17 18 19 20 21 22 23 24 25 26 27 28 29 30 31 32 33 34 35 36 37 38 39 40 41 42 43 44 45 46 47 48 49 50
000 ASUS42 KMHX 211014 RWRMHX WEATHER ROUNDUP FOR EASTERN NORTH CAROLINA NATIONAL WEATHER SERVICE NEWPORT/MOREHEAD CITY NC 600 AM EDT MON AUG 21 2017 NOTE: "FAIR" INDICATES FEW OR NO CLOUDS BELOW 12,000 FEET WITH NO SIGNIFICANT WEATHER AND/OR OBSTRUCTIONS TO VISIBILITY NCZ015>017-031-032-045>047-102-103-211100- NORTH COAST CITY SKY/WX TMP DP RH WIND PRES REMARKS EDENTON FOG 74 73 94 CALM 30.19R VSB 3/4 ELIZABETH CITY CLEAR 77 77 100 E3 30.19R KITTY HAWK CLOUDY 76 76 100 CALM 30.17S FOG MANTEO CLOUDY 77 76 98 E3 30.18S $$ NCZ045>047-081-094-103-104-211100- CENTRAL COAST CITY SKY/WX TMP DP RH WIND PRES REMARKS FRISCO MOCLDY 78 78 100 E3 30.17R $$ NCZ095-097-098-100-101-211100- SOUTHERN COAST CITY SKY/WX TMP DP RH WIND PRES REMARKS BEAUFORT MOCLDY 77 77 100 NE5 30.16R CEDAR ISLAND NOT AVBL JACKSONVILLE PTCLDY 76 76 100 NE3 30.16R PINEY ISLAND FOG N/A N/A N/A CALM 30.16S VSB 1 WILMINGTON MOCLDY 76 75 97 CALM 30.15R $$ NCZ011>013-027>030-043-044-078>080-089-090>093-098-211100- COASTAL PLAIN CITY SKY/WX TMP DP RH WIND PRES REMARKS AHOSKIE NOT AVBL CLINTON PTCLDY 72 72 100 CALM 30.18R ELIZABETHTOWN NOT AVBL GOLDSBORO FOG 74 71 92 S2 30.18R VSB 1/4 GREENVILLE FOG 72 70 94 CALM 30.20R VSB 1 HAVELOCK PTCLDY 75 72 90 CALM 30.17S KENANSVILLE FOG 70 70 100 CALM 30.18R VSB<1/4 KINSTON FOG 73 73 100 CALM 30.18S VSB 1/4 NEW BERN CLOUDY 73 73 100 CALM 30.18S RICHLANDS FOG 72 72 100 CALM 30.17S VSB 1/2 ROCKY MOUNT FOG 69 69 100 CALM 30.19R VSB 1/2 WASHINGTON FOG 72 71 97 N3 30.19R VSB 1/2 WHITEVILLE PTCLDY 75 74 97 CALM 30.16R FOG $$ AMZ130-135-150-152-154-156-158-170-250-252-270-ANZ085-086-088-633-658-670-211100- MARINE OBSERVATIONS STATION/POSITION TIME TEMP WIND PRES WAVE SWELL AIR SEA DIR/SP/G HT/PER HT/PER (UTC) (F) (DEG/KT/KT) (MB) (FT/S) (FT/S) CHESAPEAKE LIGHT NOT AVBL 64 E VA BEACH 0950 78 79 80/ 8/ 8 1022.5 2/ 8 2/ 8 DUCK 0942 78 76 70/ 6/ 7 1021.7 2 E DUCK 0930 80 N/A 2/ 8 OREGON INLET 0942 78 79 50/ 6/ 9 1021.8 13E OREGON INLT 0948 79 N/A 2/ 8 2/ 8 HATTERAS CG 0942 79 78 80/ 4/ 5 1021.7 DIAMOND BUOY 0950 82 85 30/ 8/ 10 1021.1 2/ 8 2/ 8 CAPE LOOKOUT 1000 81 50/ 7/ 8 1020.9 BEAUFORT LAB 0942 78 81 40/ 4/ 5 1020.6 30 SE NEW RVR IN 0908 80 84 290/ 2/ 2 1020.8 30 SE NEW RVR IN 0943 84 N/A 2/ 8 27 SE WRIGHTSVLE 0908 83 84 50/ 2/ 4 1020.7 5 SE WRIGHTSVLE 0908 81 83 170/ 6/ 8 1020.4 225 S CAPE HAT 0950 83 84 170/ 8/ 10 1021.4 3/ 9 2/ 9 41 SE CHARLESTON 1000 83 85 350/ 2/ 4 1020.1 $$

USA.gov is the U.S. government's official web portal to all federal, state and local government web resources and services.